Regional Weather Roundup
Issued by NWS New Orleans/Baton Rouge, LA

Home | Current Version | Previous Version | Text Only | Print | Product List | Glossary On
Versions: 1 2 3 4 5 6 7 8 9 10 11 12 13 14 15 16 17 18 19 20 21 22 23 24 25 26 27 28 29 30 31 32 33 34 35 36 37 38 39 40 41 42 43 44 45 46 47 48 49 50
634
ASUS44 KLIX 180805
RWRLIX
NEW ORLEANS REGIONAL WEATHER ROUNDUP
NATIONAL WEATHER SERVICE NEW ORLEANS LA
200 AM CST THU DEC 18 2014

NOTE: "FAIR" INDICATES FEW OR NO CLOUDS BELOW 12,000 FEET WITH NO
      SIGNIFICANT WEATHER AND/OR OBSTRUCTIONS TO VISIBILITY.
      SKY/WX - SKY CONDITION AND SIGNIFICANT WEATHER.
      TMP - AIR TEMPERATURE.     DP    - DEWPOINT TEMPERATURE.
      RH  - RELATIVE HUMIDITY.   PRES  - PRESSURE.
      HI  - HEAT INDEX.          WCI   - WIND CHILL INDEX.

*  THESE STATIONS ARE NOT NWS OR FAA STATIONS AND ARE NOT UNDER
   NWS QUALITY CONTROL.

LAZ038-040-048-061>063-065>067-069-180900-
SOUTHEAST LOUISIANA

CITY           SKY/WX    TMP DP  RH WIND       PRES   REMARKS
N.O. AUDUBON     N/A     53  47  82 MISG        N/A
N.O. INTL ARPT CLOUDY    50  41  71 CALM      30.17S
N.O. LAKEFRONT MOCLDY    54  47  77 E5        30.17F
N.O. DOWNTOWN*   N/A     55  43  62 SE3       30.17S
SLIDELL        PTCLDY    44  40  85 CALM      30.18R
BATON ROUGE    CLOUDY    45  42  89 W3        30.19R
BOOTHVILLE     MOCLDY    55  50  83 E6        30.16F
BELLE CHASSE   MOCLDY    48  44  86 E5        30.16F
BOGALUSA*        N/A     44  41  90 N3        30.21R
GALLIANO*      PTSUNNY   55  49  79 MISG      30.16S
NEW ROADS*       N/A     46  43  91 E5        30.18F
GONZALES*        N/A     45  45  98 CALM      30.18R
HAMMOND*       NOT AVBL
HOUMA*         MOCLDY    49  47  93 CALM      30.17R
PORT FOURCHON* MOSUNNY   59  54  82 E9        30.18F

$$

MSZ070-080>082-180900-
SOUTHERN MISSISSIPPI

CITY           SKY/WX    TMP DP  RH WIND       PRES   REMARKS
MCCOMB         PTCLDY    44  40  85 CALM      30.18F
GULFPORT       MOCLDY    44  41  89 CALM      30.18S
BILOXI         MOCLDY    46  42  85 NE3       30.18S
PASCAGOULA     MOCLDY    39  38  96 CALM      30.19S

$$

COASTAL OBSERVATIONS
LAKE AND NEARSHORE STATIONS

STATION/POSITION TIME  TEMP    WIND        PRES    WAVE
                       AIR SEA DIR/SP/G            HT/PER
                 (UTC) (F)     (DEG/KT/KT) (MB)    (FT/S)
PASCAGOULA       0800   50      90/  3/  6 1021.5
WAVELAND YACHT   0800   51      60/  6/  7 1020.9
GRAND ISLE       0800   58 62  100/  8/ 11 1021.4
SOUTHWEST PASS   0800   56                 1021.7
NEW CANAL        0800   52 57   80/  2/  5 1021.6
SHELL BEACH      0800   55 59  110/  7/  8 1021.4

OFFSHORE STATIONS

STATION/POSITION TIME  TEMP    WIND        PRES    WAVE
                       AIR SEA DIR/SP/G            HT/PER
                 (UTC) (F)     (DEG/KT/KT) (MB)    (FT/S)
64 S DAUPHIN ISL 0800   62 74   40/  2/  6 1021.3    1/ 4

$$




USA.gov is the U.S. government's official web portal to all federal, state and local government web resources and services.